Simultaneous Nadir Overpasses (SNOs) Predictions

Prediction of SNOs between GOES-16 and AQUA Satellite Orbit:

Table of predicted SNOs for the next 14.0 days since TLE Epoch: 1/17/2020
Index Date Time (GOES-16) GOES-16 Lat,Lon AQUA Lat,Lon Distance(km) Time Diff (sec)
1 01/19/2020 18:20:24 -0.05, -75.20 0.71, -71.65 403.57 80
2 01/20/2020 06:44:19 0.06, -75.20 0.39, -76.81 182.92 80
3 01/22/2020 06:29:28 0.06, -75.21 -0.21, -73.85 154.26 80
4 01/22/2020 18:53:32 -0.07, -75.21 -0.89, -79.04 435.17 80
5 01/24/2020 06:17:18 0.07, -75.22 -0.88, -70.90 492.04 80
6 01/24/2020 18:41:22 -0.08, -75.23 -0.28, -76.08 97.17 80
7 01/26/2020 18:26:32 -0.08, -75.25 0.40, -73.13 241.65 80
8 01/27/2020 06:50:26 0.08, -75.26 0.71, -78.29 344.05 80
9 01/29/2020 06:38:15 0.08, -75.29 0.10, -75.33 4.37 80
10 01/31/2020 06:23:25 0.08, -75.33 -0.52, -72.37 335.95 80
11 01/31/2020 18:47:29 -0.09, -75.34 -0.56, -77.57 252.70 80




NCC Satellite Simultaneous Nadir Overpasses (SNOs) Prediction Service
